Погода в Калгари

Канада     51°02′02″N   114°05′02″W
темп.,
°C
ветер,
м/с
пор.,
м/с
влажн.,
%
обл.,
%
осадки,
мм/ч
давл.,
гПа
погр.,
м
13 апреля, вт
вт1300:00−1в135472 0.0 103794
03:00−2ю115663 0.0 103750
06:00−3ююв2259100 0.0 103750
09:000ююв234660 0.0 1037450
12:00+3юв333427 0.0 10341264
15:00+5юв433082 0.0 10321455
18:00+6юв33285 0.0 10311428
21:00+2юв37424 0.0 1033200
14 апреля, ср
ср1400:000ююв36490 0.0 1033146
03:00−1ююв37530 0.0 1033180
06:00−1ююв36540 0.0 1033120
09:00+2ююв46414 0.0 1031380
12:00+7ююв45355 0.0 1029816
15:00+10ююв44357 0.0 10251059
18:00+10юв333710 0.0 10231098
21:00+6юв35535 0.0 1025112
15 апреля, чт
чт1500:00+4ю22615 0.0 102643
03:00+3зюз11655 0.0 102615
06:00+1зсз22740 0.0 102631
09:00+5ссз23560 0.0 1025247
12:00+10ссв33360 0.0 10231120
15:00+13ссв34290 0.0 10211709
18:00+13св44270 0.0 10211730
21:00+9св34430 0.0 102383
16 апреля, пт
пт1600:00+6с11490 0.0 102510
03:00+5зсз11555 0.0 102614
06:00+3сз226055 0.0 102721
09:00+6сз115177 0.0 1027158
12:00+11вюв21375 0.0 1025927
15:00+14вюв21275 0.0 10241410
18:00+15вюв21255 0.0 10231481
21:00+10вюв35390 0.0 1024118
17 апреля, сб
сб1700:00+7ю24440 0.0 102580
03:00+6ю36490 0.0 1025119
06:00+4ююз22530 0.0 102515
09:00+8юз12460 0.0 1023178
12:00+14ю21325 0.0 1020608
15:00+18ссв122517 0.0 10191364
18:00+18ссв4425100 0.0 10172004
21:00+13ссв384194 0.0 1019208